Location: Usti nad Labem
(50.6670°N, 14.0330°E)
Time: 05:15:45
(UTC+01:00)

ISS - Visible Passes

Search period start: 19 January 2019 00:00
Search period end: 29 January 2019 00:00
Orbit: 404 x 411 km, 51.6° (Epoch: 19 January)

Date Brightness Start Highest point End Pass type
(mag) Time Alt. Az. Time Alt. Az. Time Alt. Az.
23 Jan -1.8 18:39:16 10° SSW 18:40:55 18° SSE 18:40:55 18° SSE visible
24 Jan -1.5 17:49:02 10° SSE 17:50:35 13° SE 17:51:51 11° ESE visible
24 Jan -1.5 19:23:19 10° SW 19:24:35 21° SW 19:24:35 21° SW visible
25 Jan -3.0 18:32:10 10° SW 18:35:13 35° SSE 18:35:26 35° SE visible
26 Jan -2.2 17:41:15 10° SSW 17:43:57 24° SE 17:46:13 13° E visible
26 Jan -2.3 19:16:52 10° WSW 19:18:56 35° WSW 19:18:56 35° WSW visible
27 Jan -3.7 18:25:30 10° WSW 18:28:46 61° SSE 18:29:40 41° E visible
27 Jan -0.4 20:02:01 10° W 20:02:23 13° W 20:02:23 13° W visible
28 Jan -3.1 17:34:15 10° SW 17:37:23 42° SSE 17:40:21 11° E visible
28 Jan -2.9 19:10:32 10° W 19:13:04 49° W 19:13:04 49° W visible
